Powrót do katalogu

TIANQI 34

AktywnyŁącznośćLEO
NORAD 62366·PAYLOAD·🇨🇳 China

Wystrzelony Dec 19, 2024 z Yellow Sea Launch Area

Loading…

Następne Przeloty (najbliższe 24 godziny)

TLE

ŚwieżeSource: Space-Track

Epoka: Sep 14, 2026, 13:01 UTC

1 62366U 24245B   26257.54293091 -.00000012  00000-0  80048-4 0  9993
2 62366  44.9800 284.0927 0002521  85.8274 274.2847 13.99243591 88844

Śledź TIANQI 34 w czasie rzeczywistym z AllMySat

Download on the App Store